Miscellaneous Local Product
Issued by NWS Hastings, NE

Home | Current Version | Previous Version | Graphics & Text | Print | Product List | Glossary On
Versions: 1 2 3 4 5 6 7 8 9 10 11 12 13 14 15 16 17 18 19 20 21 22 23 24 25 26 27 28 29 30 31 32 33 34 35 36 37 38 39 40 41 42 43 44 45 46 47 48 49 50
000
AXUS43 KGID 291702
MISGRI

GID CWA HOURLY WEATHER ROUNDUP
NATIONAL WEATHER SERVICE HASTINGS NE
1200 PM CDT SUN MAY 29 2016

NOTE: "FAIR" INDICATES FEW OR NO CLOUDS BELOW 12,000 FEET WITH NO
SIGNIFICANT WEATHER AND/OR OBSTRUCTIONS TO VISIBILITY.

...SOUTH CENTRAL NEBRASKA...

CITY           SKY/WX    TMP DP  RH WIND       PRES   REMARKS
GRAND ISLAND   SUNNY     77  53  43 SW6       30.11S
HASTINGS       SUNNY     77  57  50 VRB5      30.10F
KEARNEY        SUNNY     77  52  41 W5        30.11F
ORD            MOSUNNY   74  57  55 CALM      30.09F
YORK           SUNNY     77  55  47 SW9       30.10F
AURORA         SUNNY     76  52  42 SW7       30.11S
LEXINGTON      SUNNY     73  58  59 CALM      30.11F
HOLDREGE       SUNNY     75  55  49 SW3       30.10F
HEBRON         SUNNY     77  60  56 SW5       30.11F

...NEBRASKA PANHANDLE...

CITY           SKY/WX    TMP DP  RH WIND       PRES   REMARKS
CHADRON        SUNNY     71  51  49 S5        30.08F
ALLIANCE       SUNNY     69  49  48 S9        30.11F
SCOTTSBLUFF    SUNNY     69  50  50 S5        30.12F
SIDNEY         SUNNY     74  46  36 SW8       30.14F

...WESTERN AND NORTH CENTRAL NEBRASKA...

CITY           SKY/WX    TMP DP  RH WIND       PRES   REMARKS
VALENTINE      SUNNY     71  49  45 VRB3      30.11F
AINSWORTH      MOSUNNY   70  53  55 SE3       30.11F
ONEILL         SUNNY     73  55  54 CALM      30.11S
BROKEN BOW     SUNNY     73  53  49 CALM      30.11F
IMPERIAL       SUNNY     73  56  54 MISG      30.11F
NORTH PLATTE   SUNNY     73  56  54 S8        30.12F
MCCOOK         SUNNY     76  58  53 MISG      30.10F

...EASTERN NEBRASKA...

CITY           SKY/WX    TMP DP  RH WIND       PRES   REMARKS
NORFOLK        SUNNY     74  56  53 SW6       30.09S
SO SIOUX CITY  SUNNY     78  59  51 W10       30.07S
TEKAMAH          N/A    N/A N/A N/A MISG      30.08S
COLUMBUS       SUNNY     75  57  53 W8        30.11S
ALBION         SUNNY     75  56  53 W5        30.10S
OMAHA EPPLEY   MOSUNNY   76  58  53 S5        30.09S
MILLARD        SUNNY     76  59  55 SE6       30.09S
LINCOLN        SUNNY     80  58  46 SW7       30.10S
NEBRASKA CITY  SUNNY     76  61  59 SW7       30.10F
BEATRICE       PTSUNNY   74  55  51 W5        30.10F
FALLS CITY     PTSUNNY   80  62  54 SW10      30.10S

...NORTHERN KANSAS...

CITY           SKY/WX    TMP DP  RH WIND       PRES   REMARKS
GOODLAND       SUNNY     76  52  43 S16G22    30.12F
HILL CITY      SUNNY     83  56  39 SW12      30.10F
NORTON         SUNNY     79  50  36 S5        30.09F
PHILLIPSBURG   SUNNY     79  59  50 SE7       30.09F
SMITH CENTER   SUNNY     79  63  57 S8        30.11S
BELOIT         SUNNY     77  63  61 SE6       30.10F
HAYS           SUNNY     81  59  47 S9        30.10S
RUSSELL        SUNNY     81  60  48 S9        30.09F
CONCORDIA      SUNNY     77  60  55 SW9       30.11S
SALINA         SUNNY     85  64  49 SW6       30.10F
TOPEKA         SUNNY     84  53  34 SW9       30.11S



USA.gov is the U.S. government's official web portal to all federal, state and local government web resources and services.